Home > Weather > Lewiston > Past weeks

Flag for USA Weather for the Past 2 Weeks in Lewiston, Idaho, USA

Now
81 °F

Sunny.


Feels Like: 79 °F
Forecast: 51 / 84 °F
Wind: 8 mph from East

Location: Lewiston-Nez Perce County Airport

Current Time: May 2, 2016 at 6:54:05 PM

Latest Report: May 2, 2016 at 5:56 PM


Visibility: 10 mi

Pressure: 29.97 "Hg

Humidity: 21%

Dew Point: 37 °F

Location of LewistonLocation

Historic Weather in Lewiston — Graph

°F

Lewiston Temperature Yesterday

Maximum temperature yesterday: 74 °F (at 5:56 PM)
Minimum temperature yesterday: 42 °F (at 4:56 AM)
Average temperature yesterday: 58 °F

High & Low Weather Summary for the Past Weeks

 TemperatureHumidityPressure
High86 °F (Apr 20, 4:56 PM)100% (May 1, 7:00 AM)30.26 "Hg (May 1, 7:00 AM)
Low42 °F (May 1, 4:56 AM)12% (Apr 18, 4:56 PM)29.51 "Hg (Apr 22, 2:56 AM)
Average59 °F57%29.95 "Hg
* Reported Apr 17 4:56 PM — May 2 4:56 PM, Lewiston, Weather by CustomWeather, © 2016

Note: Actual official high and low records may vary slightly from our data, if they occured in-between our weather recording intervals... More about our weather records

Advertising

Lewiston Weather History for the Previous 24 Hours

Scroll right to see more
 ConditionsComfort  
Time TempWeatherWind HumidityBarometerVisibility
4:56 PM
Mon, May 2
82 °FSunny.6 mph20%29.98 "Hg10 mi
3:56 PM82 °FSunny.5 mph25%29.99 "Hg10 mi
2:56 PM80 °FSunny.7 mph27%30.02 "Hg10 mi
1:56 PM78 °FSunny.5 mph36%30.04 "Hg10 mi
12:56 PM75 °FSunny.7 mph43%30.07 "Hg10 mi
11:56 AM70 °FSunny.No wind47%30.09 "Hg10 mi
10:56 AM68 °FSunny.5 mph49%30.10 "Hg10 mi
9:56 AM65 °FSunny.7 mph52%30.11 "Hg10 mi
8:56 AM60 °FSunny.7 mph65%30.11 "Hg10 mi
7:56 AM56 °FSunny.5 mph72%30.11 "Hg10 mi
6:56 AM54 °FSunny.5 mph74%30.10 "Hg10 mi
5:56 AM48 °FClear.6 mph89%30.09 "Hg10 mi
4:56 AM49 °FClear.5 mph80%30.07 "Hg10 mi
3:56 AM49 °FClear.6 mph84%30.06 "Hg10 mi
2:56 AM52 °FClear.3 mph77%30.05 "Hg10 mi
1:56 AM53 °FClear.No wind74%30.04 "Hg10 mi
12:56 AM53 °FClear.6 mph77%30.04 "Hg10 mi
11:56 PM
Sun, May 1
56 °FClear.No wind70%30.03 "Hg10 mi
10:56 PM56 °FClear.6 mph70%30.04 "Hg10 mi
9:56 PM60 °FClear.5 mph62%30.03 "Hg10 mi
8:56 PM63 °FSunny.8 mph56%30.01 "Hg10 mi
7:56 PM70 °FSunny.No wind38%30.00 "Hg10 mi
6:56 PM72 °FSunny.3 mph35%30.00 "Hg10 mi
Weather by CustomWeather, © 2016

See weather overviewHow to use our weather pages